Regional Weather Roundup
Issued by NWS Portland, ME

Current Version | Previous Version | Text Only | Print | Product List | Glossary Off
Versions: 1 2 3 4 5 6 7 8 9 10 11 12 13 14 15 16 17 18 19 20 21 22 23 24 25 26 27 28 29 30 31 32 33 34 35 36 37 38 39 40 41 42 43 44 45 46 47 48 49 50
000 ASUS41 KGYX 230906 RWRGYX WEATHER ROUNDUP FOR MAINE AND NEW HAMPSHIRE NATIONAL WEATHER SERVICE GRAY ME 400 AM EST THU NOV 23 2017 MEZ002-005-006-010-012-015-018-020-021-024-026-027-029-231000- MAINE CITY SKY/WX TMP DP RH WIND PRES REMARKS PORTLAND PTCLDY 30 25 81 W7 29.94R SANFORD N/A 30 21 69 W7 29.95R BAR HARBOR CLEAR 32 26 78 NW13G22 29.82R WISCASSET PTCLDY 32 25 75 VRB5 29.91S ROCKLAND CLEAR 32 25 75 W9G18 29.88R FRYEBURG CLEAR 29 20 69 NW5 29.93R LEWISTONAUBURN MOCLDY 31 23 72 NW10 29.92S AUGUSTA PTCLDY 31 20 63 NW17G28 29.88F WCI 19 WATERVILLE CLEAR 29 21 72 NW15 29.85R WCI 18 BANGOR PTCLDY 31 22 69 NW15 29.86R GREENVILLE NOT AVBL MILLINOCKET CLOUDY 29 25 85 NW17G29 29.82R WCI 17 HOULTON CLOUDY 29 26 89 NW12G25 29.75R WCI 19 PRESQUE ISLE CLOUDY 25 20 81 NW15G23 29.79R WCI 13 FRENCHVILLE CLOUDY 20 16 84 NW14 29.76R WCI 7 CARIBOU CLOUDY 25 19 78 NW21G30 29.76R WCI 11 $$ NHZ002-005-008-009-011-012-014-231000- NEW HAMPSHIRE CITY SKY/WX TMP DP RH WIND PRES REMARKS PORTSMOUTH PTCLDY 31 21 67 W9 29.95R ROCHESTER PTCLDY 30 21 69 W7G20 29.94R NASHUA PTCLDY 31 21 66 NW13 29.99R MANCHESTER PTCLDY 31 19 61 NW12G25 29.97R CONCORD CLEAR 29 18 63 NW6 29.98R LACONIA PTCLDY 27 18 69 NW10G21 29.98R WCI 17 PLYMOUTH CLOUDY 27 18 67 NW7G17 29.99S BERLIN CLOUDY 24 20 84 VRB7 29.95R WHITEFIELD CLOUDY 24 18 77 W5 29.99S JAFFREY PTCLDY 29 21 72 VRB7 29.96S KEENE PTCLDY 28 19 69 N7 30.02S LEBANON PTCLDY 27 16 63 N7 30.03S MT WASHINGTON NOT AVBL $$ VTZ005-007-008-231000- VERMONT CITY SKY/WX TMP DP RH WIND PRES REMARKS ST JOHNSBURY N/A 23 15 71 MISG 30.01S MONTPELIER CLOUDY 19 14 81 NW7 30.05S BURLINGTON CLOUDY 23 11 60 N7 30.11R $$ MAZ007-012-024-CTZ003-RIZ002-NYZ038-NYZ072-231000- SOUTHERN NEW ENGLAND AND NY CITY SKY/WX TMP DP RH WIND PRES REMARKS BOSTON CLEAR 34 22 61 W13 29.99R WORCESTER CLEAR 28 17 63 NW10 29.95R WCI 19 NANTUCKET CLEAR 38 29 70 NW10 29.98R PROVIDENCE PTCLDY 34 23 64 NW10 30.02R HARTFORD PTCLDY 29 21 72 W3 30.04R ALBANY CLOUDY 31 20 63 NW16 30.11R WCI 20 NEW YORK CITY CLEAR 35 22 58 NW17G25 30.08F $$ ANZ081-ANZ082-ANZ150-NHZ014-MEZ023>029-231000- COASTAL MARINE OBSERVATIONS STATION/POSITION TIME TEMP WIND PRES WAVE AIR SEA DIR/SP/G HT/PER (UTC) (F) (DEG/KT/KT) (MB) (FT/S) MOUNT DESERT ROC 0900 37 290/ 32/ 36 1009.5R MATINICUS ROCK 0800 38 310/ 27/ 30 1010.1R ISLE OF SHOALS 0800 34 290/ 19/ 22 1013.5R JEFFREYS LEDGE 0836 49 N/A 5/ 5 GEORGES BANK BUO 0750 49 53 1009.2 15/11 $$ .............KEY.............. WCI - WIND CHILL TC - TEMPERATURE IN CELSIUS VSB - VISIBILITY IN MILES HX - HEAT INDEX FAIR- INDICATES FEW OR NO CLOUDS BELOW 12,000 FT, WITH NO SIGNIFICANT WEATHER AND/OR OBSTRUCTIONS TO VISIBILITY.

USA.gov is the U.S. government's official web portal to all federal, state and local government web resources and services.